TimeEST,TemperatureF,Dew PointF,Humidity,Sea Level PressureIn,VisibilityMPH,Wind Direction,Wind SpeedMPH,Gust SpeedMPH,PrecipitationIn,Events,Conditions,WindDirDegrees,DateUTC
12:53 AM,48.9,39.9,71,30.42,10.0,Calm,Calm,-,N/A,,Clear,0,2013-11-05 05:53:00
1:53 AM,48.0,39.9,74,30.43,10.0,Calm,Calm,-,N/A,,Clear,0,2013-11-05 06:53:00
2:53 AM,46.9,39.9,77,30.43,10.0,Calm,Calm,-,N/A,,Clear,0,2013-11-05 07:53:00
3:53 AM,46.0,39.9,79,30.43,10.0,Calm,Calm,-,N/A,,Clear,0,2013-11-05 08:53:00
4:53 AM,45.0,39.9,82,30.44,10.0,Calm,Calm,-,N/A,,Clear,0,2013-11-05 09:53:00
5:53 AM,44.1,41.0,89,30.45,10.0,Calm,Calm,-,N/A,,Clear,0,2013-11-05 10:53:00
6:53 AM,43.0,39.9,89,30.46,10.0,Calm,Calm,-,N/A,,Clear,0,2013-11-05 11:53:00
7:53 AM,44.1,41.0,89,30.48,10.0,Calm,Calm,-,N/A,,Clear,0,2013-11-05 12:53:00
8:53 AM,48.0,42.1,80,30.48,10.0,ENE,3.5,-,N/A,,Clear,60,2013-11-05 13:53:00
9:53 AM,52.0,37.0,57,30.47,10.0,Variable,3.5,-,N/A,,Clear,0,2013-11-05 14:53:00
10:53 AM,57.0,36.0,45,30.46,10.0,Variable,3.5,-,N/A,,Clear,0,2013-11-05 15:53:00
11:53 AM,60.1,37.0,42,30.44,10.0,Calm,Calm,-,N/A,,Clear,0,2013-11-05 16:53:00
12:53 PM,63.0,36.0,37,30.41,10.0,Calm,Calm,-,N/A,,Partly Cloudy,0,2013-11-05 17:53:00
1:53 PM,64.0,35.1,34,30.39,10.0,Variable,3.5,-,N/A,,Overcast,0,2013-11-05 18:53:00
2:53 PM,66.0,36.0,33,30.37,10.0,Variable,4.6,-,N/A,,Mostly Cloudy,0,2013-11-05 19:53:00
3:53 PM,66.0,37.9,36,30.35,10.0,SSE,4.6,-,N/A,,Clear,160,2013-11-05 20:53:00
4:53 PM,64.9,39.0,39,30.34,10.0,SSE,3.5,-,N/A,,Clear,150,2013-11-05 21:53:00
5:53 PM,61.0,43.0,52,30.35,10.0,Calm,Calm,-,N/A,,Clear,0,2013-11-05 22:53:00
6:53 PM,57.0,44.1,62,30.35,10.0,Calm,Calm,-,N/A,,Mostly Cloudy,0,2013-11-05 23:53:00
7:53 PM,54.0,44.1,69,30.36,10.0,Calm,Calm,-,N/A,,Clear,0,2013-11-06 00:53:00
8:53 PM,51.1,43.0,74,30.35,10.0,Calm,Calm,-,N/A,,Clear,0,2013-11-06 01:53:00
9:53 PM,50.0,44.1,80,30.34,10.0,Calm,Calm,-,N/A,,Clear,0,2013-11-06 02:53:00
10:53 PM,48.9,43.0,80,30.35,10.0,Calm,Calm,-,N/A,,Clear,0,2013-11-06 03:53:00
11:53 PM,46.9,43.0,86,30.35,10.0,Calm,Calm,-,N/A,,Clear,0,2013-11-06 04:53:00